Location: Melara
(45.0500°N, 11.1833°E)
Time: 07:34:48
(UTC+00:00)

ISS - Visible Passes

Search period start: 27 February 2024 00:00
Search period end: 08 March 2024 00:00
Orbit: 414 x 422 km, 51.6° (Epoch: 27 February)

Date Brightness Start Highest point End Pass type
(mag) Time Alt. Az. Time Alt. Az. Time Alt. Az.
27 Feb -1.4 03:34:09 21° NNE 03:34:09 21° NNE 03:35:44 10° NE visible
27 Feb -2.2 05:07:06 10° NW 05:10:05 28° N 05:13:04 10° ENE visible
28 Feb -2.1 04:21:03 22° NNW 04:22:04 26° N 04:24:59 10° ENE visible
29 Feb -1.5 03:34:59 22° NNE 03:34:59 22° NNE 03:36:55 10° ENE visible
29 Feb -2.6 05:08:10 10° NW 05:11:22 38° NNE 05:14:35 10° E visible
01 Mar -2.3 04:21:49 22° NNW 04:23:19 31° NNE 04:26:23 10° ENE visible
02 Mar -1.8 03:35:43 26° NNE 03:35:43 26° NNE 03:38:08 10° ENE visible
02 Mar -3.5 05:08:57 10° WNW 05:12:20 71° NNE 05:15:43 10° ESE visible
03 Mar -0.2 02:49:37 11° ENE 02:49:37 11° ENE 02:49:52 10° ENE visible
03 Mar -3.0 04:22:33 24° NW 04:24:16 49° NNE 04:27:33 10° E visible
04 Mar -2.3 03:36:28 36° NE 03:36:28 36° NE 03:39:16 10° E visible
04 Mar -3.4 05:09:39 10° WNW 05:12:56 48° SW 05:16:12 10° SE visible
05 Mar -0.4 02:50:26 13° ENE 02:50:26 13° ENE 02:50:53 10° ENE visible
05 Mar -3.9 04:23:22 31° WNW 04:24:51 79° SSW 04:28:13 10° SE visible
06 Mar -2.9 03:37:24 49° E 03:37:24 49° E 03:40:02 10° ESE visible
06 Mar -2.1 05:10:38 10° W 05:13:09 20° SW 05:15:39 10° S visible
07 Mar -0.4 02:51:31 11° E 02:51:31 11° E 02:51:41 10° E visible
07 Mar -2.9 04:24:28 29° WSW 04:25:05 31° SW 04:28:06 10° SSE visible
